📊 Raw Sensor Data

Showing records 48326 to 48350 of 85,099 total

ID Distance (ft) Battery V Battery A Int Temp (°F) Int Humid (%) Ext Temp (°F) Solar V RSSI SNR Time Stamp
36786 -- 3.96 0 77 38 66 5.10 -76 8 04/03/2025 03:45 PM
36785 15.2 3.92 0 76 38 65 5.10 -75 8 04/03/2025 03:30 PM
36784 -- 3.98 0 77 37 65 5.10 -76 9 04/03/2025 03:16 PM
36783 -- 3.97 0 76 36 65 5.10 -76 8 04/03/2025 03:00 PM
36782 -- 3.93 0 74 37 64 5.10 -76 9 04/03/2025 02:45 PM
36781 -- 3.92 0 72 37 63 5.10 -77 8 04/03/2025 02:30 PM
36780 -- 3.92 0 71 37 62 5.10 -76 8 04/03/2025 02:15 PM
36779 -- 3.92 0 70 37 62 5.10 -79 8 04/03/2025 02:00 PM
36778 15.1 3.92 0 69 37 62 5.10 -76 7 04/03/2025 01:45 PM
36777 -- 3.92 0 68 37 61 5.10 -74 8 04/03/2025 01:30 PM
36776 15.2 3.92 0 67 38 60 5.10 -77 7 04/03/2025 01:15 PM
36775 -- 3.92 0 66 38 60 5.10 -79 8 04/03/2025 01:00 PM
36774 -- 3.93 0 65 38 60 5.10 -76 9 04/03/2025 12:45 PM
36773 -- 4.11 0 65 37 59 5.10 -77 8 04/03/2025 12:30 PM
36772 15.2 3.92 0 64 38 58 5.10 -77 7 04/03/2025 12:15 PM
36771 -- 3.92 0 62 38 58 5.10 -77 9 04/03/2025 12:00 PM
36770 -- 3.92 0 62 38 57 5.10 -77 9 04/03/2025 11:45 AM
36769 -- 4.11 0 61 38 57 5.10 -77 8 04/03/2025 11:30 AM
36768 -- 3.92 0 60 37 57 5.10 -78 8 04/03/2025 11:15 AM
36767 -- 3.92 0 59 38 56 5.10 -78 8 04/03/2025 11:00 AM
36766 -- 3.92 0 57 37 55 5.10 -78 8 04/03/2025 10:45 AM
36765 -- 3.92 0 56 37 55 5.10 -79 8 04/03/2025 10:30 AM
36764 -- 3.92 0 55 37 54 5.10 -79 8 04/03/2025 10:15 AM
36763 -- 3.92 0 54 37 55 5.10 -82 9 04/03/2025 10:00 AM
36762 -- 3.92 5 53 37 54 5.10 -82 8 04/03/2025 09:45 AM